Content
SEND FEEDBACK

Daily
Averages
Monthly
Summary
United States of America

POTTS JUNCTION, GUAM


Home > North America > United States > Guam
Elevation: 360 feet     Latitude: 13 33N     Longitude: 144 50E

WEATHER
 
SELECT A DAY
Number of Records: 209,308;   Date Range: 1/1/95 - 9/18/14
 
SHARE

PRINT THIS DATA

[ ← Previous Day ]
WEATHER ALMANAC - MAY 12, 2014
[ Next Day → ]
[ °C ]   °F
Weather ElementAverageHighLow
Temperature84.1 °F90 °F (12:54 pm)80.1 °F (1:54 am)
Dewpoint73.8 °F75.9 °F (1:54 am)66.9 °F (12:54 pm)
Humidity72.1 %87 % (1:54 am)46 % (12:54 pm)
Barometer29.91 in29.95 in (8:46 pm)29.85 in (4:54 pm)
Wind Speed8.2 mph13.8 mph (8:54 am)
Wind Gust16.1 mph (7:54 am)
Weather ElementAverage
Visibility10 mi
Wind DirectionE (89.6 °)

Weather ElementTotal
Precipitation---
Cooling Degree Days20.1 (Base 65)
Growing Degree Days35.1 (Base 50)
Averaged from 24 records on May 12, 2014
WEATHER CONDITIONS BREAKOUT
WIND DIRECTION BREAKOUT
WEATHER BY HOUR - MAY 12, 2014
[ °C ]   °F
Local TimeTemperatureDewpointHumidityBarometerVisibilityWind DirectionWind SpeedGust SpeedPrecipitationEventsConditions
1:54 AM80.1 °F75.9 °F87 %29.91 in10.0 miNE (50°)4.6 mphPartly Cloudy
2:54 AM81.0 °F75.9 °F85 %29.89 in10.0 miENE (60°)10.4 mph0.00 inRainLight Rain
3:54 AM81.0 °F75.0 °F82 %29.88 in10.0 miENE (60°)6.9 mph0.00 inClear
4:54 AM81.0 °F75.0 °F82 %29.89 in10.0 miEast (80°)5.8 mphPartly Cloudy
5:54 AM81.0 °F75.0 °F82 %29.90 in10.0 miEast (80°)6.9 mphPartly Cloudy
6:54 AM81.0 °F75.0 °F82 %29.91 in10.0 miEast (90°)6.9 mphPartly Cloudy
7:54 AM82.9 °F75.9 °F79 %29.94 in10.0 miEast (80°)9.2 mph16.1 mph0.00 inScattered Clouds
8:54 AM84.9 °F73.9 °F69 %29.94 in10.0 miEast (100°)13.8 mphPartly Cloudy
9:54 AM86.0 °F73.0 °F65 %29.94 in10.0 miESE (120°)8.1 mphPartly Cloudy
10:54 AM87.1 °F73.9 °F65 %29.94 in10.0 miESE (120°)9.2 mphPartly Cloudy
11:54 AM89.1 °F70.0 °F53 %29.92 in10.0 miEast (100°)8.1 mphPartly Cloudy
12:54 PM90.0 °F66.9 °F46 %29.90 in10.0 miSE (130°)8.1 mphPartly Cloudy
1:54 PM90.0 °F69.1 °F50 %29.88 in10.0 miESE (110°)11.5 mphPartly Cloudy
2:54 PM89.1 °F70.0 °F53 %29.86 in10.0 miEast (80°)12.7 mphPartly Cloudy
3:54 PM88.0 °F73.9 °F63 %29.86 in10.0 miEast (90°)10.4 mphPartly Cloudy
4:54 PM87.1 °F73.9 °F65 %29.85 in10.0 miEast (80°)11.5 mphPartly Cloudy
5:54 PM84.9 °F73.9 °F69 %29.87 in10.0 miESE (110°)9.2 mphPartly Cloudy
6:54 PM82.9 °F73.9 °F74 %29.89 in10.0 miEast (90°)5.8 mphClear
7:54 PM82.9 °F75.0 °F77 %29.91 in10.0 miEast (80°)5.8 mphPartly Cloudy
8:46 PM82.4 °F75.2 °F79 %29.95 in10.0 miEast (90°)6.9 mphMostly Cloudy
8:54 PM82.9 °F75.9 °F79 %29.93 in10.0 miEast (90°)6.9 mph0.00 inRainLight Rain
9:54 PM82.0 °F75.0 °F79 %29.94 in10.0 miEast (80°)5.8 mph0.00 inScattered Clouds
10:54 PM81.0 °F75.9 °F85 %29.94 in10.0 miEast (90°)6.9 mph0.00 inPartly Cloudy
11:54 PM80.1 °F73.9 °F81 %29.93 in10.0 miEast (90°)5.8 mphClear
Hourly data recorded from PGUM, located miles away from Potts Junction, Guam







STORIES FROM OUR PARTNERS